000000,20.5257, 03 Nov 2015, 00:00:36
000030,20.5294, 03 Nov 2015, 00:01:05
000100,20.5333, 03 Nov 2015, 00:01:35
000130,20.5361, 03 Nov 2015, 00:02:05
000200,20.5394, 03 Nov 2015, 00:02:35
000230,20.5421, 03 Nov 2015, 00:03:05
000300,20.5451, 03 Nov 2015, 00:03:35
000330,20.5473, 03 Nov 2015, 00:04:05
000400,20.55, 03 Nov 2015, 00:04:35
000500,20.5533, 03 Nov 2015, 00:05:35
000530,20.5532, 03 Nov 2015, 00:06:05
000600,20.5514, 03 Nov 2015, 00:06:35
000630,20.5506, 03 Nov 2015, 00:07:05
000700,20.5501, 03 Nov 2015, 00:07:34
000730,20.5498, 03 Nov 2015, 00:08:05
000800,20.5494, 03 Nov 2015, 00:08:35
000830,20.5509, 03 Nov 2015, 00:09:05
000900,20.5535, 03 Nov 2015, 00:09:35
000930,20.5565, 03 Nov 2015, 00:10:05
001000,20.5602, 03 Nov 2015, 00:10:35
001030,20.5613, 03 Nov 2015, 00:11:05
001100,20.5656, 03 Nov 2015, 00:11:35
001130,20.5652, 03 Nov 2015, 00:12:05
001200,20.562, 03 Nov 2015, 00:12:36
001230,20.5582, 03 Nov 2015, 00:13:06
001300,20.5567, 03 Nov 2015, 00:13:36
001330,20.556, 03 Nov 2015, 00:14:05
001400,20.5565, 03 Nov 2015, 00:14:36
001430,20.5591, 03 Nov 2015, 00:15:06
001500,20.5626, 03 Nov 2015, 00:15:36
001530,20.5644, 03 Nov 2015, 00:16:05
001600,20.563, 03 Nov 2015, 00:16:35
001630,20.5631, 03 Nov 2015, 00:17:06
001700,20.5615, 03 Nov 2015, 00:17:36
001730,20.5598, 03 Nov 2015, 00:18:06
001800,20.5588, 03 Nov 2015, 00:18:35
001830,20.5599, 03 Nov 2015, 00:19:06
001900,20.5735, 03 Nov 2015, 00:19:36
001930,20.5833, 03 Nov 2015, 00:20:06
002000,20.5885, 03 Nov 2015, 00:20:35
002030,20.5873, 03 Nov 2015, 00:21:05
002100,20.5833, 03 Nov 2015, 00:21:36
002130,20.5773, 03 Nov 2015, 00:22:06
002200,20.5727, 03 Nov 2015, 00:22:35
002230,20.5688, 03 Nov 2015, 00:23:05
002300,20.5659, 03 Nov 2015, 00:23:36
002330,20.5645, 03 Nov 2015, 00:24:06
002400,20.562, 03 Nov 2015, 00:24:35
002430,20.5613, 03 Nov 2015, 00:25:05
002500,20.5598, 03 Nov 2015, 00:25:35
002530,20.5598, 03 Nov 2015, 00:26:06
002600,20.5587, 03 Nov 2015, 00:26:36
002630,20.5573, 03 Nov 2015, 00:27:05
002700,20.5565, 03 Nov 2015, 00:27:35
002730,20.5568, 03 Nov 2015, 00:28:06
002800,20.5574, 03 Nov 2015, 00:28:36
002830,20.5571, 03 Nov 2015, 00:29:05
002900,20.556, 03 Nov 2015, 00:29:35
002930,20.5543, 03 Nov 2015, 00:30:05
003000,20.5529, 03 Nov 2015, 00:30:36
003030,20.5518, 03 Nov 2015, 00:31:06
003100,20.5523, 03 Nov 2015, 00:31:35
003130,20.5528, 03 Nov 2015, 00:32:05
003200,20.5535, 03 Nov 2015, 00:32:36
003230,20.5533, 03 Nov 2015, 00:33:05
003300,20.554, 03 Nov 2015, 00:33:35
003330,20.5535, 03 Nov 2015, 00:34:05
003400,20.5528, 03 Nov 2015, 00:34:35
003500,20.5519, 03 Nov 2015, 00:35:35
003530,20.551, 03 Nov 2015, 00:36:05
003600,20.5513, 03 Nov 2015, 00:36:35
003630,20.5522, 03 Nov 2015, 00:37:06
003700,20.5515, 03 Nov 2015, 00:37:35
003730,20.5529, 03 Nov 2015, 00:38:05
003800,20.5542, 03 Nov 2015, 00:38:35
003830,20.5553, 03 Nov 2015, 00:39:06
003900,20.555, 03 Nov 2015, 00:39:35
003930,20.5556, 03 Nov 2015, 00:40:05
004000,20.5568, 03 Nov 2015, 00:40:35
004030,20.5575, 03 Nov 2015, 00:41:05
004100,20.5573, 03 Nov 2015, 00:41:36
004130,20.5572, 03 Nov 2015, 00:42:05
004200,20.5555, 03 Nov 2015, 00:42:35
004230,20.5544, 03 Nov 2015, 00:43:05
004300,20.5524, 03 Nov 2015, 00:43:35
004330,20.552, 03 Nov 2015, 00:44:05
004400,20.5514, 03 Nov 2015, 00:44:35
004430,20.5524, 03 Nov 2015, 00:45:05
004500,20.553, 03 Nov 2015, 00:45:34
004530,20.5545, 03 Nov 2015, 00:46:05
004600,20.5554, 03 Nov 2015, 00:46:35
004630,20.5551, 03 Nov 2015, 00:47:05
004700,20.5543, 03 Nov 2015, 00:47:35
004730,20.5546, 03 Nov 2015, 00:48:05
004800,20.5556, 03 Nov 2015, 00:48:35
004830,20.5567, 03 Nov 2015, 00:49:05
004900,20.557, 03 Nov 2015, 00:49:35
004930,20.5566, 03 Nov 2015, 00:50:05
005000,20.5567, 03 Nov 2015, 00:50:35
005030,20.5573, 03 Nov 2015, 00:51:05
005100,20.5579, 03 Nov 2015, 00:51:35
005200,20.5563, 03 Nov 2015, 00:52:36
005230,20.5569, 03 Nov 2015, 00:53:06
005300,20.5579, 03 Nov 2015, 00:53:36
005330,20.5589, 03 Nov 2015, 00:54:05
005400,20.5608, 03 Nov 2015, 00:54:36
005430,20.5619, 03 Nov 2015, 00:55:06
005500,20.563, 03 Nov 2015, 00:55:36
005530,20.5651, 03 Nov 2015, 00:56:05
005600,20.5655, 03 Nov 2015, 00:56:36
005630,20.5649, 03 Nov 2015, 00:57:06
005700,20.5645, 03 Nov 2015, 00:57:36
005730,20.5636, 03 Nov 2015, 00:58:05
005800,20.564, 03 Nov 2015, 00:58:35
005830,20.5741, 03 Nov 2015, 00:59:06
005900,20.5807, 03 Nov 2015, 00:59:36
005930,20.58, 03 Nov 2015, 01:00:06
010000,20.5789, 03 Nov 2015, 01:00:35
010030,20.5776, 03 Nov 2015, 01:01:06
010100,20.5772, 03 Nov 2015, 01:01:36
010130,20.5774, 03 Nov 2015, 01:02:06
010200,20.5772, 03 Nov 2015, 01:02:35
010230,20.5776, 03 Nov 2015, 01:03:05
010300,20.579, 03 Nov 2015, 01:03:36
010330,20.5782, 03 Nov 2015, 01:04:06
010400,20.5758, 03 Nov 2015, 01:04:35
010430,20.5738, 03 Nov 2015, 01:05:05
010500,20.5725, 03 Nov 2015, 01:05:35
010530,20.5721, 03 Nov 2015, 01:06:06
010600,20.5707, 03 Nov 2015, 01:06:36
010630,20.5707, 03 Nov 2015, 01:07:05
010700,20.5709, 03 Nov 2015, 01:07:35
010730,20.5713, 03 Nov 2015, 01:08:05
010800,20.5726, 03 Nov 2015, 01:08:36
010830,20.5811, 03 Nov 2015, 01:09:06
010900,20.5903, 03 Nov 2015, 01:09:35
010930,20.5914, 03 Nov 2015, 01:10:05
011000,20.5889, 03 Nov 2015, 01:10:36
011030,20.5844, 03 Nov 2015, 01:11:06
011100,20.5813, 03 Nov 2015, 01:11:35
011130,20.5792, 03 Nov 2015, 01:12:05
011200,20.5763, 03 Nov 2015, 01:12:35
011230,20.574, 03 Nov 2015, 01:13:06
011300,20.5726, 03 Nov 2015, 01:13:35
011330,20.5709, 03 Nov 2015, 01:14:05
011400,20.5709, 03 Nov 2015, 01:14:35
011430,20.5705, 03 Nov 2015, 01:15:06
011500,20.5704, 03 Nov 2015, 01:15:35
011530,20.5694, 03 Nov 2015, 01:16:05
011600,20.5691, 03 Nov 2015, 01:16:35
011630,20.5678, 03 Nov 2015, 01:17:05
011700,20.568, 03 Nov 2015, 01:17:36
011730,20.5683, 03 Nov 2015, 01:18:05
011800,20.5683, 03 Nov 2015, 01:18:35
011835,20.5686, 03 Nov 2015, 01:19:11
011900,20.5682, 03 Nov 2015, 01:19:36
011930,20.5687, 03 Nov 2015, 01:20:06
012000,20.5705, 03 Nov 2015, 01:20:35
012030,20.573, 03 Nov 2015, 01:21:05
012100,20.5727, 03 Nov 2015, 01:21:35
012130,20.5713, 03 Nov 2015, 01:22:06
012200,20.5702, 03 Nov 2015, 01:22:35
012230,20.5686, 03 Nov 2015, 01:23:05
012300,20.5683, 03 Nov 2015, 01:23:35
012330,20.5676, 03 Nov 2015, 01:24:06
012400,20.567, 03 Nov 2015, 01:24:36
012430,20.5691, 03 Nov 2015, 01:25:05
012500,20.5699, 03 Nov 2015, 01:25:35
012530,20.5718, 03 Nov 2015, 01:26:05
012600,20.5734, 03 Nov 2015, 01:26:36
012630,20.5741, 03 Nov 2015, 01:27:05
012700,20.5743, 03 Nov 2015, 01:27:35
012730,20.5751, 03 Nov 2015, 01:28:05
012800,20.575, 03 Nov 2015, 01:28:36
012900,20.5746, 03 Nov 2015, 01:29:35
012930,20.5745, 03 Nov 2015, 01:30:05
013000,20.5735, 03 Nov 2015, 01:30:36
013030,20.5731, 03 Nov 2015, 01:31:05
013100,20.5727, 03 Nov 2015, 01:31:35
013130,20.5728, 03 Nov 2015, 01:32:05
013200,20.5721, 03 Nov 2015, 01:32:35
013230,20.5723, 03 Nov 2015, 01:33:05
013300,20.5735, 03 Nov 2015, 01:33:35
013330,20.575, 03 Nov 2015, 01:34:05
013400,20.5749, 03 Nov 2015, 01:34:35
013500,20.5788, 03 Nov 2015, 01:35:35
013530,20.5795, 03 Nov 2015, 01:36:05
013600,20.58, 03 Nov 2015, 01:36:35
013630,20.5801, 03 Nov 2015, 01:37:05
013700,20.5802, 03 Nov 2015, 01:37:35
013730,20.5801, 03 Nov 2015, 01:38:05
013800,20.5797, 03 Nov 2015, 01:38:35
013830,20.5791, 03 Nov 2015, 01:39:05
013900,20.5781, 03 Nov 2015, 01:39:35
013930,20.5778, 03 Nov 2015, 01:40:05
014000,20.577, 03 Nov 2015, 01:40:35
014030,20.5767, 03 Nov 2015, 01:41:05
014100,20.576, 03 Nov 2015, 01:41:34
014130,20.5753, 03 Nov 2015, 01:42:05
014200,20.575, 03 Nov 2015, 01:42:35
014230,20.5755, 03 Nov 2015, 01:43:05
014300,20.5757, 03 Nov 2015, 01:43:34
014330,20.5755, 03 Nov 2015, 01:44:05
014400,20.5778, 03 Nov 2015, 01:44:35
014430,20.5783, 03 Nov 2015, 01:45:05
014530,20.5753, 03 Nov 2015, 01:46:05
014600,20.574, 03 Nov 2015, 01:46:35
014630,20.574, 03 Nov 2015, 01:47:05
014700,20.5728, 03 Nov 2015, 01:47:35
014730,20.5715, 03 Nov 2015, 01:48:04
014800,20.5708, 03 Nov 2015, 01:48:35
014830,20.57, 03 Nov 2015, 01:49:05
014900,20.5711, 03 Nov 2015, 01:49:35
014930,20.5714, 03 Nov 2015, 01:50:05
015000,20.5716, 03 Nov 2015, 01:50:36
015030,20.571, 03 Nov 2015, 01:51:06
015100,20.5699, 03 Nov 2015, 01:51:35
015130,20.5707, 03 Nov 2015, 01:52:05
015200,20.5704, 03 Nov 2015, 01:52:36
015230,20.5697, 03 Nov 2015, 01:53:06
015300,20.5699, 03 Nov 2015, 01:53:36
015330,20.5695, 03 Nov 2015, 01:54:05
015400,20.5679, 03 Nov 2015, 01:54:36
015430,20.5674, 03 Nov 2015, 01:55:06
015500,20.5668, 03 Nov 2015, 01:55:36
015530,20.5657, 03 Nov 2015, 01:56:05
015600,20.5661, 03 Nov 2015, 01:56:35
015630,20.5673, 03 Nov 2015, 01:57:06
015700,20.5674, 03 Nov 2015, 01:57:36
015730,20.567, 03 Nov 2015, 01:58:05
015800,20.5677, 03 Nov 2015, 01:58:35
015830,20.5686, 03 Nov 2015, 01:59:06
015900,20.5687, 03 Nov 2015, 01:59:36
015930,20.5681, 03 Nov 2015, 02:00:05
020000,20.5683, 03 Nov 2015, 02:00:35
020030,20.5668, 03 Nov 2015, 02:01:05
020100,20.5664, 03 Nov 2015, 02:01:36
020130,20.5672, 03 Nov 2015, 02:02:05
020200,20.5673, 03 Nov 2015, 02:02:35
020230,20.5675, 03 Nov 2015, 02:03:05
020300,20.5686, 03 Nov 2015, 02:03:36
020330,20.5714, 03 Nov 2015, 02:04:06
020400,20.5728, 03 Nov 2015, 02:04:35
020430,20.5756, 03 Nov 2015, 02:05:05
020500,20.578, 03 Nov 2015, 02:05:35
020530,20.5783, 03 Nov 2015, 02:06:06
020600,20.5782, 03 Nov 2015, 02:06:36
020630,20.5785, 03 Nov 2015, 02:07:05
020700,20.5803, 03 Nov 2015, 02:07:35
020730,20.5806, 03 Nov 2015, 02:08:05
020800,20.5802, 03 Nov 2015, 02:08:36
020900,20.5798, 03 Nov 2015, 02:09:35
020930,20.5801, 03 Nov 2015, 02:10:05
021000,20.5805, 03 Nov 2015, 02:10:36
021030,20.5805, 03 Nov 2015, 02:11:05
021100,20.5795, 03 Nov 2015, 02:11:35
021130,20.579, 03 Nov 2015, 02:12:05
021200,20.5795, 03 Nov 2015, 02:12:35
021300,20.5803, 03 Nov 2015, 02:13:35
021330,20.5808, 03 Nov 2015, 02:14:05
021400,20.5804, 03 Nov 2015, 02:14:35
021430,20.5809, 03 Nov 2015, 02:15:06
021500,20.5793, 03 Nov 2015, 02:15:35
021530,20.58, 03 Nov 2015, 02:16:05
021600,20.5793, 03 Nov 2015, 02:16:35
021630,20.5777, 03 Nov 2015, 02:17:05
021700,20.5783, 03 Nov 2015, 02:17:35
021730,20.58, 03 Nov 2015, 02:18:05
021800,20.582, 03 Nov 2015, 02:18:35
021830,20.5843, 03 Nov 2015, 02:19:05
021900,20.5856, 03 Nov 2015, 02:19:35
021930,20.5866, 03 Nov 2015, 02:20:05
022000,20.5872, 03 Nov 2015, 02:20:35
022030,20.588, 03 Nov 2015, 02:21:05
022100,20.588, 03 Nov 2015, 02:21:34
022130,20.5872, 03 Nov 2015, 02:22:05
022200,20.5867, 03 Nov 2015, 02:22:35
022230,20.5865, 03 Nov 2015, 02:23:05
022300,20.5858, 03 Nov 2015, 02:23:35
022330,20.5859, 03 Nov 2015, 02:24:05
022400,20.585, 03 Nov 2015, 02:24:35
022430,20.5844, 03 Nov 2015, 02:25:05
022500,20.5845, 03 Nov 2015, 02:25:35
022530,20.5834, 03 Nov 2015, 02:26:04
022600,20.5829, 03 Nov 2015, 02:26:35
022630,20.5841, 03 Nov 2015, 02:27:05
022700,20.5849, 03 Nov 2015, 02:27:35
022730,20.5854, 03 Nov 2015, 02:28:04
022800,20.5858, 03 Nov 2015, 02:28:35
022830,20.5857, 03 Nov 2015, 02:29:05
022930,20.5863, 03 Nov 2015, 02:30:05
023000,20.5866, 03 Nov 2015, 02:30:36
023030,20.5872, 03 Nov 2015, 02:31:06
023100,20.5883, 03 Nov 2015, 02:31:36
023130,20.5904, 03 Nov 2015, 02:32:05
023200,20.5919, 03 Nov 2015, 02:32:35
023230,20.5925, 03 Nov 2015, 02:33:06
023300,20.5944, 03 Nov 2015, 02:33:36
023330,20.5955, 03 Nov 2015, 02:34:05
023400,20.5969, 03 Nov 2015, 02:34:35
023430,20.5972, 03 Nov 2015, 02:35:06
023500,20.5978, 03 Nov 2015, 02:35:36
023530,20.598, 03 Nov 2015, 02:36:06
023600,20.5986, 03 Nov 2015, 02:36:35
023630,20.5992, 03 Nov 2015, 02:37:06
023700,20.6018, 03 Nov 2015, 02:37:36
023730,20.6035, 03 Nov 2015, 02:38:06
023800,20.6061, 03 Nov 2015, 02:38:35
023830,20.6088, 03 Nov 2015, 02:39:05
023900,20.6122, 03 Nov 2015, 02:39:36
024000,20.6223, 03 Nov 2015, 02:40:35
024030,20.6278, 03 Nov 2015, 02:41:05
024100,20.6346, 03 Nov 2015, 02:41:36
024130,20.6418, 03 Nov 2015, 02:42:06
024200,20.6492, 03 Nov 2015, 02:42:35
024230,20.6584, 03 Nov 2015, 02:43:05
024300,20.6672, 03 Nov 2015, 02:43:36
024330,20.676, 03 Nov 2015, 02:44:06
024400,20.6846, 03 Nov 2015, 02:44:35
024430,20.694, 03 Nov 2015, 02:45:05
024500,20.7052, 03 Nov 2015, 02:45:35
024530,20.7158, 03 Nov 2015, 02:46:06
024600,20.7265, 03 Nov 2015, 02:46:35
024630,20.7355, 03 Nov 2015, 02:47:05
024700,20.7438, 03 Nov 2015, 02:47:35
024730,20.7512, 03 Nov 2015, 02:48:06
024800,20.7575, 03 Nov 2015, 02:48:36
024830,20.7608, 03 Nov 2015, 02:49:05
024900,20.766, 03 Nov 2015, 02:49:35
024930,20.7712, 03 Nov 2015, 02:50:06
025000,20.7753, 03 Nov 2015, 02:50:35
025030,20.7785, 03 Nov 2015, 02:51:05
025100,20.7815, 03 Nov 2015, 02:51:35
025130,20.7839, 03 Nov 2015, 02:52:06
025200,20.785, 03 Nov 2015, 02:52:35
025230,20.7858, 03 Nov 2015, 02:53:05
025300,20.7871, 03 Nov 2015, 02:53:35
025330,20.7874, 03 Nov 2015, 02:54:05
025400,20.7888, 03 Nov 2015, 02:54:35
025430,20.7905, 03 Nov 2015, 02:55:05
025500,20.7921, 03 Nov 2015, 02:55:35
025530,20.7943, 03 Nov 2015, 02:56:05
025600,20.7961, 03 Nov 2015, 02:56:36
025630,20.7974, 03 Nov 2015, 02:57:05
025700,20.7968, 03 Nov 2015, 02:57:35
025730,20.795, 03 Nov 2015, 02:58:05
025800,20.791, 03 Nov 2015, 02:58:36
025830,20.7856, 03 Nov 2015, 02:59:05
025900,20.7773, 03 Nov 2015, 02:59:35
025930,20.77, 03 Nov 2015, 03:00:05
030000,20.7652, 03 Nov 2015, 03:00:34
030030,20.76, 03 Nov 2015, 03:01:05
030100,20.7543, 03 Nov 2015, 03:01:35
030130,20.7502, 03 Nov 2015, 03:02:05
030200,20.7472, 03 Nov 2015, 03:02:35
030230,20.7442, 03 Nov 2015, 03:03:05
030300,20.7404, 03 Nov 2015, 03:03:35
030330,20.7346, 03 Nov 2015, 03:04:05
030400,20.7264, 03 Nov 2015, 03:04:35
030430,20.721, 03 Nov 2015, 03:05:05
030500,20.7163, 03 Nov 2015, 03:05:35
030530,20.7127, 03 Nov 2015, 03:06:05
030600,20.7085, 03 Nov 2015, 03:06:35
030630,20.7037, 03 Nov 2015, 03:07:05
030700,20.6978, 03 Nov 2015, 03:07:34
030730,20.6919, 03 Nov 2015, 03:08:05
030800,20.6883, 03 Nov 2015, 03:08:35
030830,20.6868, 03 Nov 2015, 03:09:05
030900,20.686, 03 Nov 2015, 03:09:35
030930,20.6848, 03 Nov 2015, 03:10:06
031000,20.6841, 03 Nov 2015, 03:10:36
031030,20.6825, 03 Nov 2015, 03:11:06
031100,20.6796, 03 Nov 2015, 03:11:35
031130,20.6749, 03 Nov 2015, 03:12:05
031200,20.671, 03 Nov 2015, 03:12:36
031230,20.6662, 03 Nov 2015, 03:13:06
031330,20.6587, 03 Nov 2015, 03:14:05
031400,20.6555, 03 Nov 2015, 03:14:36
031430,20.6521, 03 Nov 2015, 03:15:06
031500,20.6492, 03 Nov 2015, 03:15:36
031530,20.646, 03 Nov 2015, 03:16:05
031600,20.6418, 03 Nov 2015, 03:16:36
031630,20.6378, 03 Nov 2015, 03:17:06
031700,20.6306, 03 Nov 2015, 03:17:36
031730,20.6231, 03 Nov 2015, 03:18:05
031800,20.6139, 03 Nov 2015, 03:18:35
031830,20.6049, 03 Nov 2015, 03:19:06
031900,20.596, 03 Nov 2015, 03:19:36
031930,20.5853, 03 Nov 2015, 03:20:05
032000,20.5727, 03 Nov 2015, 03:20:35
032030,20.5556, 03 Nov 2015, 03:21:06
032100,20.5389, 03 Nov 2015, 03:21:36
032130,20.5231, 03 Nov 2015, 03:22:05
032200,20.5084, 03 Nov 2015, 03:22:35
032230,20.4977, 03 Nov 2015, 03:23:05
032300,20.4877, 03 Nov 2015, 03:23:36
032330,20.4797, 03 Nov 2015, 03:24:06
032400,20.4726, 03 Nov 2015, 03:24:35
032430,20.4635, 03 Nov 2015, 03:25:05
032500,20.4536, 03 Nov 2015, 03:25:36
032530,20.4416, 03 Nov 2015, 03:26:06
032600,20.4297, 03 Nov 2015, 03:26:35
032630,20.4156, 03 Nov 2015, 03:27:05
032700,20.3982, 03 Nov 2015, 03:27:35
032730,20.3809, 03 Nov 2015, 03:28:06
032800,20.3629, 03 Nov 2015, 03:28:36
032830,20.3465, 03 Nov 2015, 03:29:05
032900,20.3304, 03 Nov 2015, 03:29:35
032930,20.3136, 03 Nov 2015, 03:30:06
033000,20.2929, 03 Nov 2015, 03:30:35
033030,20.2684, 03 Nov 2015, 03:31:05
033100,20.2411, 03 Nov 2015, 03:31:35
033130,20.2156, 03 Nov 2015, 03:32:05
033200,20.1929, 03 Nov 2015, 03:32:36
033230,20.1726, 03 Nov 2015, 03:33:05
033300,20.1539, 03 Nov 2015, 03:33:35
033330,20.1374, 03 Nov 2015, 03:34:05
033400,20.12, 03 Nov 2015, 03:34:35
033430,20.1024, 03 Nov 2015, 03:35:06
033500,20.083, 03 Nov 2015, 03:35:35
033530,20.0639, 03 Nov 2015, 03:36:05
033600,20.0452, 03 Nov 2015, 03:36:35
033630,20.0288, 03 Nov 2015, 03:37:05
033700,20.0128, 03 Nov 2015, 03:37:36
033730,19.9998, 03 Nov 2015, 03:38:05
033800,19.9865, 03 Nov 2015, 03:38:35
033830,19.9719, 03 Nov 2015, 03:39:05
033930,19.9399, 03 Nov 2015, 03:40:05
034000,19.92, 03 Nov 2015, 03:40:35
034030,19.9011, 03 Nov 2015, 03:41:05
034100,19.8858, 03 Nov 2015, 03:41:35
034130,19.8745, 03 Nov 2015, 03:42:05
034200,19.8667, 03 Nov 2015, 03:42:35
034230,19.8614, 03 Nov 2015, 03:43:05
034300,19.8602, 03 Nov 2015, 03:43:35
034330,19.8582, 03 Nov 2015, 03:44:05
034400,19.8582, 03 Nov 2015, 03:44:35
034430,19.8565, 03 Nov 2015, 03:45:05
034500,19.8552, 03 Nov 2015, 03:45:35
034600,19.848, 03 Nov 2015, 03:46:35
034630,19.8428, 03 Nov 2015, 03:47:05
034700,19.8394, 03 Nov 2015, 03:47:35
034730,19.8347, 03 Nov 2015, 03:48:05
034800,19.8322, 03 Nov 2015, 03:48:35
034830,19.8304, 03 Nov 2015, 03:49:05
034900,19.8305, 03 Nov 2015, 03:49:36
034930,19.8322, 03 Nov 2015, 03:50:05
035000,19.8357, 03 Nov 2015, 03:50:36
035030,19.8382, 03 Nov 2015, 03:51:06
035100,19.8412, 03 Nov 2015, 03:51:36
035130,19.8444, 03 Nov 2015, 03:52:05
035200,19.8483, 03 Nov 2015, 03:52:36
035230,19.8524, 03 Nov 2015, 03:53:06
035300,19.8578, 03 Nov 2015, 03:53:36
035400,19.8664, 03 Nov 2015, 03:54:35
035430,19.872, 03 Nov 2015, 03:55:06
035500,19.8772, 03 Nov 2015, 03:55:36
035530,19.8818, 03 Nov 2015, 03:56:06
035600,19.8863, 03 Nov 2015, 03:56:35
035630,19.8908, 03 Nov 2015, 03:57:06
035700,19.8951, 03 Nov 2015, 03:57:36
035730,19.8987, 03 Nov 2015, 03:58:06
035800,19.9029, 03 Nov 2015, 03:58:35
035830,19.9076, 03 Nov 2015, 03:59:06
035900,19.9103, 03 Nov 2015, 03:59:36
040000,19.9177, 03 Nov 2015, 04:00:35
040030,19.9222, 03 Nov 2015, 04:01:05
040100,19.9282, 03 Nov 2015, 04:01:36
040130,19.9344, 03 Nov 2015, 04:02:06
040200,19.941, 03 Nov 2015, 04:02:35
040230,19.9465, 03 Nov 2015, 04:03:05
040300,19.9501, 03 Nov 2015, 04:03:35
040330,19.9537, 03 Nov 2015, 04:04:06
040400,19.9575, 03 Nov 2015, 04:04:36
040430,19.9611, 03 Nov 2015, 04:05:05
040500,19.9652, 03 Nov 2015, 04:05:35
040530,19.969, 03 Nov 2015, 04:06:06
040600,19.9721, 03 Nov 2015, 04:06:36
040700,19.9767, 03 Nov 2015, 04:07:35
040730,19.98, 03 Nov 2015, 04:08:05
040800,19.9815, 03 Nov 2015, 04:08:36
040830,19.9808, 03 Nov 2015, 04:09:06
040900,19.9803, 03 Nov 2015, 04:09:35
040930,19.9816, 03 Nov 2015, 04:10:05
041000,19.9811, 03 Nov 2015, 04:10:35
041030,19.9805, 03 Nov 2015, 04:11:06
041100,19.9781, 03 Nov 2015, 04:11:35
041130,19.9773, 03 Nov 2015, 04:12:05
041200,19.9782, 03 Nov 2015, 04:12:35
041230,19.9791, 03 Nov 2015, 04:13:06
041300,19.9816, 03 Nov 2015, 04:13:35
041330,19.9839, 03 Nov 2015, 04:14:05
041400,19.987, 03 Nov 2015, 04:14:35
041430,19.989, 03 Nov 2015, 04:15:05
041530,19.9891, 03 Nov 2015, 04:16:05
041600,19.99, 03 Nov 2015, 04:16:35
041630,19.9904, 03 Nov 2015, 04:17:05
041700,19.9913, 03 Nov 2015, 04:17:36
041730,19.9896, 03 Nov 2015, 04:18:05
041800,19.9905, 03 Nov 2015, 04:18:35
041830,19.9921, 03 Nov 2015, 04:19:05
041900,19.9958, 03 Nov 2015, 04:19:34
041930,20.0001, 03 Nov 2015, 04:20:05
042000,20.005, 03 Nov 2015, 04:20:35
042030,20.0106, 03 Nov 2015, 04:21:05
042100,20.0169, 03 Nov 2015, 04:21:35
042130,20.0248, 03 Nov 2015, 04:22:05
042200,20.0331, 03 Nov 2015, 04:22:35
042230,20.0419, 03 Nov 2015, 04:23:05
042300,20.0518, 03 Nov 2015, 04:23:35
042330,20.0633, 03 Nov 2015, 04:24:05
042400,20.075, 03 Nov 2015, 04:24:35
042430,20.0868, 03 Nov 2015, 04:25:05
042500,20.1, 03 Nov 2015, 04:25:35
042530,20.1151, 03 Nov 2015, 04:26:05
042600,20.1301, 03 Nov 2015, 04:26:35
042630,20.1436, 03 Nov 2015, 04:27:05
042700,20.1564, 03 Nov 2015, 04:27:35
042730,20.1688, 03 Nov 2015, 04:28:05
042800,20.1792, 03 Nov 2015, 04:28:35
042830,20.1898, 03 Nov 2015, 04:29:05
042900,20.2006, 03 Nov 2015, 04:29:36
042930,20.2117, 03 Nov 2015, 04:30:06
043000,20.221, 03 Nov 2015, 04:30:36
043030,20.229, 03 Nov 2015, 04:31:06
043100,20.2356, 03 Nov 2015, 04:31:35
043130,20.2406, 03 Nov 2015, 04:32:06
043200,20.2419, 03 Nov 2015, 04:32:36
043230,20.242, 03 Nov 2015, 04:33:06
043330,20.2374, 03 Nov 2015, 04:34:05
043400,20.2346, 03 Nov 2015, 04:34:36
043430,20.2332, 03 Nov 2015, 04:35:06
043500,20.2336, 03 Nov 2015, 04:35:36
043530,20.234, 03 Nov 2015, 04:36:05
043600,20.2349, 03 Nov 2015, 04:36:36
043630,20.236, 03 Nov 2015, 04:37:06
043700,20.2376, 03 Nov 2015, 04:37:36
043730,20.2377, 03 Nov 2015, 04:38:06
043800,20.2384, 03 Nov 2015, 04:38:35
043830,20.2386, 03 Nov 2015, 04:39:06
043900,20.2383, 03 Nov 2015, 04:39:36
043930,20.2386, 03 Nov 2015, 04:40:05
044000,20.2397, 03 Nov 2015, 04:40:35
044030,20.2409, 03 Nov 2015, 04:41:05
044100,20.242, 03 Nov 2015, 04:41:36
044130,20.2422, 03 Nov 2015, 04:42:06
044200,20.2425, 03 Nov 2015, 04:42:35
044230,20.2434, 03 Nov 2015, 04:43:05
044300,20.2433, 03 Nov 2015, 04:43:36
044330,20.2442, 03 Nov 2015, 04:44:06
044400,20.2438, 03 Nov 2015, 04:44:35
044430,20.2444, 03 Nov 2015, 04:45:05
044500,20.2433, 03 Nov 2015, 04:45:35
044530,20.2416, 03 Nov 2015, 04:46:06
044600,20.2405, 03 Nov 2015, 04:46:36
044630,20.2445, 03 Nov 2015, 04:47:05
044700,20.2485, 03 Nov 2015, 04:47:35
044730,20.2484, 03 Nov 2015, 04:48:06
044800,20.2459, 03 Nov 2015, 04:48:36
044900,20.2407, 03 Nov 2015, 04:49:35
044930,20.2379, 03 Nov 2015, 04:50:05
045000,20.2418, 03 Nov 2015, 04:50:36
045030,20.2444, 03 Nov 2015, 04:51:05
045100,20.2435, 03 Nov 2015, 04:51:35
045130,20.2432, 03 Nov 2015, 04:52:05
045200,20.2408, 03 Nov 2015, 04:52:36
045230,20.2391, 03 Nov 2015, 04:53:06
045300,20.2424, 03 Nov 2015, 04:53:35
045330,20.245, 03 Nov 2015, 04:54:05
045400,20.2473, 03 Nov 2015, 04:54:35
045430,20.2474, 03 Nov 2015, 04:55:06
045500,20.2472, 03 Nov 2015, 04:55:35
045530,20.2479, 03 Nov 2015, 04:56:05
045600,20.2486, 03 Nov 2015, 04:56:35
045630,20.2477, 03 Nov 2015, 04:57:05
045700,20.2461, 03 Nov 2015, 04:57:36
045730,20.2443, 03 Nov 2015, 04:58:05
045800,20.2431, 03 Nov 2015, 04:58:35
045830,20.2491, 03 Nov 2015, 04:59:05
045900,20.2518, 03 Nov 2015, 04:59:35
045930,20.2508, 03 Nov 2015, 05:00:05
050000,20.248, 03 Nov 2015, 05:00:35
050030,20.2448, 03 Nov 2015, 05:01:05
050100,20.2403, 03 Nov 2015, 05:01:35
050130,20.239, 03 Nov 2015, 05:02:05
050200,20.2399, 03 Nov 2015, 05:02:35
050230,20.244, 03 Nov 2015, 05:03:05
050300,20.2446, 03 Nov 2015, 05:03:35
050330,20.2436, 03 Nov 2015, 05:04:05
050400,20.2413, 03 Nov 2015, 05:04:35
050430,20.2389, 03 Nov 2015, 05:05:05
050500,20.2367, 03 Nov 2015, 05:05:35
050530,20.2358, 03 Nov 2015, 05:06:05
050600,20.2462, 03 Nov 2015, 05:06:35
050630,20.2552, 03 Nov 2015, 05:07:05
050700,20.2569, 03 Nov 2015, 05:07:35
050730,20.2553, 03 Nov 2015, 05:08:05
050800,20.2499, 03 Nov 2015, 05:08:35
050830,20.2461, 03 Nov 2015, 05:09:05
050900,20.2425, 03 Nov 2015, 05:09:36
050930,20.2411, 03 Nov 2015, 05:10:06
051000,20.245, 03 Nov 2015, 05:10:36
051100,20.2438, 03 Nov 2015, 05:11:35
051130,20.2411, 03 Nov 2015, 05:12:06
051200,20.2379, 03 Nov 2015, 05:12:36
051230,20.2354, 03 Nov 2015, 05:13:06
051300,20.2341, 03 Nov 2015, 05:13:35
051330,20.2358, 03 Nov 2015, 05:14:06
051400,20.2364, 03 Nov 2015, 05:14:36
051430,20.2355, 03 Nov 2015, 05:15:06
051500,20.2343, 03 Nov 2015, 05:15:36
051530,20.2331, 03 Nov 2015, 05:16:05
051600,20.2305, 03 Nov 2015, 05:16:36
051630,20.2294, 03 Nov 2015, 05:17:06
051700,20.2304, 03 Nov 2015, 05:17:36
051730,20.2356, 03 Nov 2015, 05:18:06
051800,20.2384, 03 Nov 2015, 05:18:35